Wind_Speed
15 9 12 17 18 16 14 14 15 15 17 14 14 15 13 21 26 23 15 18 15 12 8 6 3 5 5 7 9 11 12 12 13 12 11 10 11 7 10 11 16 18 18 17
13 14 16 16 17 7 12 14 16 17 16 15 18 18 17 19 22 23 16 7 15 15 10 5 2 2 4 6 8 9 10 12 13 12 12 12 10 8 8 12 12 17 19 19
19 15 6 5 13 11 14 15 16 18 16 15 17 22 21 24 25 12 3 6 15 15 13 11 5 1 4 5 6 6 7 10 12 11 10 9 6 6 11 14 15 18 18 19
17 19 21 14 14 15 18 16 15 11 9 11 12 15 15 15 9 9 11 12 13 14 14 14 8 4 0 3 6 8 8 10 12 14 14 14 14 14 14 15 17 16 16 17
13 9 10 15 18 16 19 8 7 11 12 13 17 10 19 15 17 17 17 15 15 14 13 12 9 7 4 3 4 7 6 9 12 14 15 16 16 14 14 16 17 16 15 13
19 24 9 11 13 9 8 4 11 13 10 12 17 14 18 14 7 18 20 19 18 19 17 15 11 8 5 3 3 6 4 8 11 13 15 16 16 17 16 19 19 19 17 17
19 20 15 14 10 9 8 9 5 6 9 11 17 12 10 14 3 13 19 23 21 22 20 17 13 11 7 4 4 4 4 6 9 11 13 15 16 16 16 18 19 19 20 21
13 14 20 15 16 14 17 13 7 9 10 14 21 13 9 8 9 18 22 26 25 22 22 19 15 10 9 6 5 4 3 5 7 9 11 12 13 13 14 15 16 17 18 18
9 13 14 19 9 13 13 12 14 12 13 12 14 21 18 18 15 10 12 14 25 25 24 19 16 14 10 8 5 5 3 4 7 8 9 11 12 12 13 14 15 16 18 18
13 11 7 11 9 12 8 10 8 4 3 12 13 16 8 11 8 4 2 8 18 23 24 22 18 16 12 8 5 3 3 3 5 6 7 9 10 10 11 12 14 16 17 18
11 11 12 11 6 14 12 12 11 9 9 11 13 11 8 10 8 4 7 14 25 27 25 23 21 17 13 9 5 2 1 2 3 4 6 6 8 8 9 11 12 14 15 17
6 5 9 14 13 14 3 11 11 5 6 2 4 8 13 7 2 13 19 11 20 13 23 24 22 20 15 10 7 5 1 2 3 4 5 6 6 8 9 10 12 13 15 16
9 3 7 13 14 16 15 12 17 15 12 15 12 12 10 17 9 5 3 11 13 17 21 22 19 17 14 11 8 6 4 3 2 3 2 1 3 6 8 11 13 13 14 15
4 8 13 11 15 16 15 15 16 15 10 13 13 17 19 16 17 14 16 10 6 22 14 17 17 15 13 11 9 6 5 4 2 2 3 1 3 4 6 8 9 9 11 14
5 12 15 18 22 21 21 21 22 20 17 17 19 18 19 17 13 7 17 17 12 22 22 18 16 16 13 12 10 8 6 6 5 3 2 1 2 4 5 6 7 8 10 14
13 12 12 18 20 19 22 23 24 23 22 23 22 23 20 23 25 12 10 17 18 22 20 19 16 16 14 12 11 9 7 6 5 3 2 2 3 4 6 7 8 9 11 12
13 4 11 16 17 17 11 22 21 21 20 19 17 15 15 16 5 8 4 2 19 23 23 21 19 18 14 13 10 8 7 7 5 3 3 3 5 5 6 8 9 11 12 12
14 13 9 12 13 16 16 20 20 21 21 21 18 16 16 21 6 6 3 6 15 26 27 24 21 18 16 14 13 10 8 7 5 4 4 5 5 6 7 7 8 10 11 13
15 14 13 13 15 17 25 19 10 14 20 20 16 17 18 8 8 8 10 5 18 25 25 22 17 18 17 14 11 10 9 7 6 6 5 5 6 6 7 8 9 10 11 12
21 18 13 13 16 18 24 16 21 8 16 10 9 9 13 10 4 4 7 9 18 19 16 15 17 17 13 14 12 11 9 8 7 7 7 6 7 7 8 9 10 11 12 13
9 13 15 15 14 14 22 21 26 14 8 6 6 9 10 5 3 15 10 9 12 15 16 16 16 15 14 13 11 11 9 8 8 7 7 7 8 8 9 11 12 11 12 12
15 11 10 8 11 14 5 12 8 3 3 4 9 7 1 10 15 15 12 12 14 16 16 15 16 15 14 13 10 11 10 10 9 8 8 9 9 9 9 10 11 13 11 11
13 14 12 12 9 2 7 14 17 13 9 7 4 3 11 17 17 16 16 14 15 16 15 14 14 16 15 12 11 12 12 10 9 9 9 9 10 9 9 6 7 8 8 8
13 21 10 10 10 12 16 5 9 7 6 4 2 9 12 16 18 18 16 16 16 16 17 16 15 14 14 12 11 11 12 10 9 9 8 7 8 11 8 8 11 11 9 10
7 11 7 6 13 9 21 18 9 9 6 4 4 11 10 14 17 17 19 18 19 18 18 16 16 15 15 14 12 12 11 10 9 8 7 6 7 7 7 9 12 14 15 15
14 13 5 7 13 3 11 4 7 8 8 8 8 10 9 14 17 17 19 20 21 20 18 15 16 15 16 15 14 12 12 12 12 12 10 8 8 6 6 7 8 12 14 16
Wind_Direction
198 216 232 241 236 259 284 276 281 285 300 283 267 268 262 274 269 263 223 229 158 133 121 119 108 84 31 35 29 21 13 20 22 20 19 23 23 359 8 332 348 327 328 325
245 228 250 270 277 301 286 275 273 280 277 273 284 283 280 269 263 262 243 109 132 133 144 157 155 28 22 23 29 12 8 2 4 12 3 14 17 19 318 329 338 329 333 332
251 248 137 263 274 240 251 259 271 275 286 293 296 278 265 253 254 217 174 210 146 155 167 169 183 21 15 14 25 17 15 21 29 30 9 8 4 353 318 339 327 325 332 327
260 260 263 246 242 263 264 273 288 299 286 269 271 286 273 291 195 158 167 173 150 162 166 169 171 149 355 32 58 51 39 35 30 27 23 15 8 358 346 336 318 334 315 327
231 231 245 256 260 237 262 290 301 279 275 285 265 260 276 271 267 174 167 167 169 165 169 162 161 151 137 103 69 73 31 29 26 22 20 14 7 359 348 327 331 316 325 315
242 269 272 241 257 241 280 279 268 253 250 254 266 253 267 272 336 178 162 171 173 172 173 161 156 158 146 136 112 91 42 29 25 23 19 16 9 1 351 340 338 339 328 321
241 233 231 239 240 200 226 246 269 248 233 242 259 273 261 319 180 156 169 172 176 174 167 164 170 170 160 149 118 70 65 37 28 25 19 15 10 1 351 345 344 339 340 339
213 219 213 194 227 223 210 225 230 275 279 295 304 285 281 329 88 125 169 176 171 174 172 169 169 173 172 164 145 125 80 46 36 27 19 14 11 6 358 353 353 351 349 349
256 255 179 206 186 227 248 251 269 283 284 285 273 274 269 274 245 163 159 172 166 175 164 169 170 172 171 176 178 147 118 50 35 28 16 8 9 9 7 7 10 11 7 4
275 279 187 184 230 248 264 294 296 292 265 271 274 278 316 36 33 10 334 242 177 173 166 170 171 166 170 174 203 158 122 65 35 20 20 3 4 9 10 10 15 20 14 13
297 279 258 233 188 254 244 232 245 277 280 273 280 271 87 36 332 291 287 293 307 173 173 169 173 164 165 168 182 167 143 67 28 21 10 11 8 11 9 10 13 18 16 17
7 320 290 274 269 277 309 290 277 238 252 222 217 259 288 154 351 350 342 285 239 227 186 169 171 157 155 165 165 152 80 9 49 45 11 15 14 13 9 15 13 12 12 16
346 242 281 277 270 267 265 259 260 263 246 263 280 273 303 307 253 53 176 285 301 207 175 172 169 158 154 164 158 152 143 119 69 116 127 61 46 36 25 23 22 19 12 16
3 270 258 273 285 308 302 289 275 260 267 273 269 286 288 272 277 232 246 277 324 162 189 164 165 152 154 162 153 151 143 124 131 177 160 92 39 36 36 32 28 23 16 22
224 258 265 271 271 274 277 283 277 272 271 249 268 266 271 289 295 184 220 229 187 170 169 181 166 153 157 161 152 153 155 158 192 210 195 138 61 49 47 44 35 27 21 25
218 244 259 271 274 282 281 275 273 275 277 280 283 282 287 293 297 266 234 227 177 169 180 168 167 162 159 155 164 185 181 185 207 191 157 101 70 60 56 51 45 40 37 31
256 236 275 265 275 282 290 259 268 274 275 279 280 293 321 318 4 324 310 203 169 169 175 161 161 158 160 168 187 184 179 195 183 161 129 103 81 74 65 58 53 52 46 41
265 265 258 259 274 267 257 269 278 285 286 282 286 300 304 310 32 56 32 243 168 153 157 161 166 169 181 184 192 183 185 179 175 156 127 105 86 78 73 67 60 58 49 44
251 257 258 256 258 270 281 269 292 288 284 282 297 292 292 307 99 64 46 95 149 160 162 171 190 182 182 186 181 176 171 173 168 150 126 108 89 81 74 71 66 59 54 47
239 235 239 244 250 258 256 280 275 331 279 316 322 343 346 104 218 91 120 147 149 165 179 185 181 184 189 178 174 173 172 169 163 147 128 112 97 86 75 67 65 59 51 46
238 232 236 240 250 258 269 284 282 273 281 16 26 34 48 64 72 144 185 157 165 171 174 177 184 189 177 169 177 173 171 165 151 139 128 118 104 87 73 64 61 62 56 46
266 246 223 231 241 259 294 304 287 355 335 287 288 270 177 158 162 164 174 169 172 173 171 174 174 175 167 173 182 175 172 160 146 138 128 114 102 93 89 82 61 58 54 38
263 259 268 252 259 246 241 236 273 280 276 284 290 174 183 169 168 173 172 172 167 165 161 164 173 170 172 182 178 176 163 153 142 128 118 117 107 79 64 93 98 96 86 69
284 261 256 283 283 291 305 310 202 221 244 238 228 187 191 182 179 177 174 170 165 160 161 165 169 162 157 159 169 174 164 155 139 124 119 119 124 125 105 52 64 62 59 55
262 299 283 278 268 304 282 275 267 221 217 209 187 202 202 188 176 178 169 167 161 165 169 168 159 154 156 158 161 153 153 137 133 134 124 104 80 95 87 65 44 38 40 36
265 278 297 301 313 275 289 326 324 216 212 180 181 185 193 182 179 171 167 166 168 168 165 160 160 156 154 151 149 150 158 161 157 144 142 136 142 120 16 8 29 32 27 24
Height
1493 1494 1491 1482 1475 1473 1470 1473 1476 1468 1462 1466 1467 1469 1471 1475 1475 1473 1475 1481 1484 1497 1504 1508 1512 1511 1510 1505 1502 1500 1499 1498 1497 1496 1496 1496 1496 1495 1495 1493 1491 1488 1486 1485
1488 1487 1480 1476 1474 1477 1480 1479 1478 1470 1467 1468 1469 1467 1470 1470 1468 1469 1470 1476 1483 1492 1501 1510 1513 1511 1509 1506 1503 1502 1499 1497 1496 1495 1495 1495 1495 1495 1493 1492 1491 1488 1485 1483
1482 1472 1469 1476 1475 1479 1481 1481 1477 1474 1467 1467 1471 1467 1464 1458 1459 1464 1472 1478 1482 1489 1496 1504 1511 1512 1511 1507 1504 1502 1500 1497 1496 1495 1494 1493 1493 1492 1491 1490 1488 1486 1484 1482
1476 1472 1467 1470 1479 1481 1483 1471 1469 1472 1477 1482 1468 1471 1458 1453 1455 1464 1471 1476 1481 1488 1495 1499 1505 1508 1511 1508 1504 1502 1500 1498 1497 1495 1493 1492 1491 1490 1489 1487 1485 1484 1481 1480
1472 1470 1472 1474 1472 1473 1476 1472 1478 1478 1478 1478 1472 1478 1449 1449 1443 1456 1468 1477 1482 1488 1495 1498 1502 1504 1508 1508 1504 1502 1500 1498 1497 1495 1493 1492 1490 1489 1488 1485 1483 1480 1479 1477
1472 1469 1468 1469 1468 1469 1474 1480 1478 1479 1480 1485 1471 1468 1451 1447 1439 1441 1460 1472 1479 1484 1490 1496 1500 1503 1505 1507 1504 1502 1499 1497 1497 1495 1493 1491 1489 1487 1485 1483 1480 1477 1475 1472
1470 1466 1467 1470 1470 1472 1478 1481 1488 1483 1479 1475 1453 1449 1441 1437 1437 1443 1457 1467 1475 1480 1485 1491 1496 1501 1504 1505 1504 1502 1499 1497 1496 1495 1493 1491 1489 1487 1484 1481 1479 1475 1472 1469
1466 1468 1459 1460 1465 1467 1470 1471 1482 1487 1478 1468 1452 1459 1449 1438 1440 1443 1452 1458 1468 1477 1482 1487 1491 1496 1500 1502 1502 1500 1499 1497 1495 1494 1491 1490 1488 1486 1484 1481 1477 1475 1472 1470
1456 1451 1446 1449 1457 1464 1464 1467 1461 1469 1467 1473 1465 1450 1441 1433 1434 1444 1451 1458 1464 1471 1476 1483 1487 1491 1496 1499 1498 1498 1497 1496 1494 1492 1491 1489 1487 1485 1484 1481 1478 1476 1473 1471
1453 1461 1450 1452 1459 1460 1464 1463 1474 1470 1493 1483 1462 1453 1448 1452 1453 1455 1460 1463 1464 1469 1473 1479 1484 1487 1493 1496 1496 1496 1494 1493 1493 1492 1490 1489 1487 1485 1483 1481 1478 1476 1474 1471
1461 1460 1459 1454 1473 1465 1462 1464 1465 1467 1470 1476 1475 1460 1459 1464 1461 1462 1466 1470 1470 1462 1474 1476 1480 1482 1487 1493 1493 1495 1494 1491 1491 1491 1489 1489 1487 1485 1483 1481 1479 1476 1474 1471
1466 1465 1467 1460 1455 1454 1459 1466 1465 1479 1478 1485 1488 1482 1455 1461 1464 1469 1470 1470 1469 1473 1468 1476 1481 1475 1482 1490 1492 1493 1494 1491 1490 1491 1490 1489 1488 1486 1483 1480 1478 1476 1474 1471
1475 1472 1478 1469 1463 1456 1457 1458 1458 1457 1458 1464 1473 1461 1451 1453 1456 1460 1462 1467 1467 1462 1474 1475 1481 1477 1480 1487 1490 1492 1492 1492 1490 1490 1490 1489 1488 1486 1483 1480 1478 1477 1475 1472
1480 1475 1474 1475 1466 1462 1466 1462 1458 1456 1469 1466 1462 1460 1452 1452 1450 1451 1454 1460 1462 1466 1482 1473 1477 1475 1480 1487 1488 1489 1490 1490 1490 1489 1488 1488 1486 1485 1482 1481 1479 1478 1475 1472
1479 1479 1475 1472 1466 1464 1462 1458 1453 1452 1451 1461 1454 1448 1442 1437 1439 1440 1444 1449 1455 1461 1467 1475 1475 1475 1481 1485 1485 1486 1487 1489 1488 1487 1487 1486 1485 1483 1482 1481 1479 1478 1475 1473
1472 1474 1474 1472 1464 1464 1465 1457 1450 1448 1446 1444 1442 1440 1434 1434 1434 1434 1440 1442 1449 1458 1470 1470 1476 1478 1479 1482 1483 1483 1484 1487 1486 1486 1486 1485 1484 1483 1482 1480 1479 1477 1476 1474
1474 1478 1476 1468 1466 1464 1470 1449 1449 1444 1441 1440 1445 1436 1433 1433 1434 1438 1442 1442 1446 1456 1464 1469 1474 1472 1475 1479 1481 1481 1483 1484 1485 1485 1485 1484 1483 1482 1481 1480 1479 1478 1477 1475
1468 1466 1466 1469 1471 1477 1448 1442 1443 1442 1437 1433 1433 1433 1434 1434 1436 1439 1443 1441 1445 1448 1455 1463 1464 1467 1473 1477 1478 1480 1482 1483 1484 1485 1485 1484 1483 1482 1481 1480 1480 1479 1478 1476
1463 1462 1464 1469 1462 1455 1445 1437 1446 1445 1438 1431 1434 1432 1431 1433 1439 1444 1444 1442 1445 1448 1452 1458 1462 1468 1472 1476 1478 1479 1481 1482 1483 1484 1484 1483 1483 1483 1482 1481 1481 1480 1479 1478
1452 1453 1461 1459 1461 1458 1430 1436 1436 1437 1434 1432 1431 1431 1432 1431 1439 1447 1448 1448 1449 1452 1456 1460 1465 1468 1473 1476 1478 1479 1480 1482 1483 1484 1484 1484 1484 1484 1483 1483 1482 1481 1480 1480
1443 1449 1453 1451 1455 1445 1428 1435 1435 1440 1436 1434 1435 1435 1434 1440 1450 1449 1449 1451 1453 1455 1458 1461 1465 1469 1472 1475 1477 1479 1480 1482 1483 1484 1484 1484 1485 1485 1485 1484 1484 1483 1482 1482
1441 1443 1446 1450 1453 1448 1432 1431 1434 1437 1437 1438 1437 1435 1434 1437 1444 1444 1449 1453 1455 1456 1459 1462 1465 1468 1472 1475 1477 1479 1480 1482 1483 1484 1485 1485 1485 1486 1486 1486 1485 1485 1484 1483
1445 1440 1438 1439 1432 1430 1430 1432 1430 1434 1435 1434 1434 1432 1433 1436 1442 1445 1449 1452 1455 1457 1460 1463 1465 1469 1472 1475 1477 1478 1480 1482 1484 1485 1485 1486 1487 1487 1487 1486 1484 1484 1484 1483
1435 1432 1433 1435 1425 1425 1426 1426 1428 1432 1433 1433 1433 1432 1434 1435 1438 1444 1447 1451 1455 1458 1461 1464 1466 1469 1472 1476 1478 1479 1481 1482 1484 1485 1486 1487 1487 1487 1488 1486 1486 1486 1484 1483
1444 1444 1431 1429 1426 1426 1422 1426 1426 1428 1430 1432 1432 1432 1434 1437 1439 1442 1446 1451 1455 1458 1461 1464 1467 1470 1474 1477 1478 1480 1482 1483 1485 1487 1487 1488 1488 1489 1489 1488 1488 1487 1485 1485
1434 1431 1427 1424 1424 1426 1425 1425 1424 1426 1429 1431 1431 1433 1434 1437 1439 1442 1446 1450 1454 1458 1461 1464 1468 1471 1474 1477 1480 1482 1483 1485 1486 1488 1489 1489 1490 1490 1489 1489 1489 1488 1487 1486